Location: Calvatone
(45.1167°N, 10.4333°E)
Time: 10:02:00
(UTC+00:00)

NOSS 3-4 (A) - Pass Details

Date: 28 January 2023
Orbit: 830 x 1382 km, 63.4° (Epoch: 28 March)

Event Time Altitude Azimuth Distance (km) Brightness Sun altitude
Rises 17:36:56 0° 319° (NW) 3,818 7.0 -13.7°
Reaches altitude 10° 17:39:27 10° 317° (NW) 2,936 6.4 -14.2°
Maximum altitude 17:46:24 64° 238° (WSW) 1,311 4.4 -15.4°
Drops below altitude 10° 17:54:17 10° 159° (SSE) 3,305 6.1 -16.7°
Sets 17:57:17 0° 157° (SSE) 4,326 6.7 -17.2°
